Location: Dalton
(34.7700°N, 84.9700°W)
Time: 21:53:15
(UTC-05:00)

Envisat - Pass Details

Date: 09 October 2017
Orbit: 764 x 766 km, 98.2° (Epoch: 11 December)

Event Time Altitude Azimuth Distance (km) Brightness Sun altitude
Exits shadow 20:04:28 11° 59° (ENE) 2,253 4.9 -11.5°
Drops below altitude 10° 20:05:20 10° 49° (NE) 2,306 5.0 -11.6°
Sets 20:09:39 0° 14° (NNE) 3,239 6.1 -12.5°
